| time (UTC) | temp F | wind direction | speed knots | gust knots | rain 1hr in | rain 24hr in | rain mn in | humidity % | barometer mb |
| 20260906121606 | 69 | 0 | 0.0 | 0.0 | 0.00 | 0.00 | 0.00 | 90 | 1018.9 |
| 20260906121034 | 68 | 0 | 0.0 | 0.0 | 0.00 | 0.00 | 0.00 | 90 | 1018.9 |
| 20260906120534 | 68 | 0 | 0.0 | 0.0 | 0.00 | 0.00 | 0.00 | 90 | 1018.8 |
| 20260906120108 | 68 | 0 | 0.0 | 0.0 | 0.00 | 0.00 | 0.00 | 89 | 1018.7 |
| 20260906115536 | 68 | 0 | 0.0 | 0.9 | 0.00 | 0.00 | 0.00 | 89 | 1018.5 |
| 20260906115034 | 68 | 0 | 0.0 | 0.9 | 0.00 | 0.00 | 0.00 | 89 | 1018.5 |
| 20260906114603 | 68 | 0 | 0.0 | 0.9 | 0.00 | 0.00 | 0.00 | 89 | 1018.4 |
| 20260906114034 | 68 | 0 | 0.0 | 1.7 | 0.00 | 0.00 | 0.00 | 89 | 1018.3 |
| 20260906113534 | 68 | 0 | 0.0 | 1.7 | 0.00 | 0.00 | 0.00 | 89 | 1018.2 |
| 20260906113052 | 68 | 9 | 0.0 | 0.0 | 0.00 | 0.00 | 0.00 | 89 | 1018.3 |
| 20260906112533 | 68 | 0 | 0.0 | 0.0 | 0.00 | 0.00 | 0.00 | 89 | 1018.2 |
| 20260906112035 | 68 | 0 | 0.0 | 0.0 | 0.00 | 0.00 | 0.00 | 89 | 1018.1 |
| 20260906111625 | 68 | 0 | 0.0 | 0.0 | 0.00 | 0.00 | 0.00 | 89 | 1018.0 |
| 20260906111032 | 68 | 0 | 0.0 | 0.0 | 0.00 | 0.00 | 0.00 | 89 | 1018.1 |
| 20260906110536 | 69 | 0 | 0.0 | 0.9 | 0.00 | 0.00 | 0.00 | 89 | 1018.0 |
| 20260906110057 | 69 | 0 | 0.0 | 0.9 | 0.00 | 0.00 | 0.00 | 89 | 1018.0 |
| 20260906105536 | 69 | 0 | 0.0 | 0.9 | 0.00 | 0.00 | 0.00 | 89 | 1017.8 |
| 20260906105034 | 69 | 96 | 0.0 | 1.7 | 0.00 | 0.00 | 0.00 | 89 | 1017.7 |
| 20260906104555 | 69 | 0 | 0.0 | 1.7 | 0.00 | 0.00 | 0.00 | 89 | 1017.6 |
| 20260906104037 | 69 | 0 | 0.0 | 3.5 | 0.00 | 0.00 | 0.00 | 89 | 1017.6 |
| 20260906103533 | 69 | 0 | 0.0 | 3.5 | 0.00 | 0.00 | 0.00 | 88 | 1017.6 |
| 20260906103100 | 69 | 0 | 0.0 | 3.5 | 0.00 | 0.00 | 0.00 | 88 | 1017.5 |
| 20260906102533 | 69 | 0 | 0.0 | 3.5 | 0.00 | 0.00 | 0.00 | 88 | 1017.6 |
| 20260906102032 | 69 | 0 | 0.0 | 0.0 | 0.00 | 0.00 | 0.00 | 88 | 1017.6 |
| 20260906101601 | 69 | 0 | 0.0 | 0.0 | 0.00 | 0.00 | 0.00 | 88 | 1017.5 |
| 20260906101033 | 69 | 0 | 0.0 | 0.0 | 0.00 | 0.00 | 0.00 | 88 | 1017.5 |
| 20260906100535 | 69 | 0 | 0.0 | 2.6 | 0.00 | 0.00 | 0.00 | 88 | 1017.5 |
| 20260906100058 | 69 | 0 | 0.0 | 2.6 | 0.00 | 0.00 | 0.00 | 88 | 1017.5 |
| 20260906095536 | 69 | 0 | 0.0 | 2.6 | 0.00 | 0.00 | 0.00 | 88 | 1017.4 |
| 20260906095040 | 69 | 0 | 0.0 | 1.7 | 0.00 | 0.00 | 0.00 | 88 | 1017.3 |
| 20260906094555 | 70 | 0 | 0.0 | 2.6 | 0.00 | 0.00 | 0.00 | 88 | 1017.3 |
| 20260906094033 | 70 | 0 | 0.0 | 3.5 | 0.00 | 0.00 | 0.00 | 88 | 1017.3 |
| 20260906093533 | 70 | 50 | 0.0 | 3.5 | 0.00 | 0.00 | 0.00 | 88 | 1017.3 |
| 20260906093106 | 70 | 0 | 0.9 | 3.5 | 0.00 | 0.00 | 0.00 | 88 | 1017.4 |
| 20260906092534 | 70 | 0 | 0.0 | 2.6 | 0.00 | 0.00 | 0.00 | 88 | 1017.4 |
| 20260906092035 | 70 | 0 | 0.0 | 2.6 | 0.00 | 0.00 | 0.00 | 87 | 1017.3 |
| 20260906091600 | 70 | 0 | 0.0 | 1.7 | 0.00 | 0.00 | 0.00 | 87 | 1017.3 |
| 20260906091034 | 70 | 0 | 0.0 | 0.9 | 0.00 | 0.00 | 0.00 | 87 | 1017.2 |
| 20260906090538 | 70 | 0 | 0.0 | 0.9 | 0.00 | 0.00 | 0.00 | 87 | 1017.2 |
| 20260906090111 | 70 | 0 | 0.0 | 1.7 | 0.00 | 0.00 | 0.00 | 87 | 1017.2 |
| 20260906085535 | 70 | 0 | 0.0 | 1.7 | 0.00 | 0.00 | 0.00 | 87 | 1017.1 |
| 20260906085034 | 70 | 0 | 0.0 | 0.9 | 0.00 | 0.00 | 0.00 | 87 | 1017.2 |
| 20260906084611 | 70 | 0 | 0.0 | 3.5 | 0.00 | 0.00 | 0.00 | 87 | 1017.2 |
| 20260906084034 | 70 | 297 | 0.0 | 3.5 | 0.00 | 0.00 | 0.00 | 86 | 1017.1 |
| 20260906083534 | 71 | 0 | 0.0 | 3.5 | 0.00 | 0.00 | 0.00 | 86 | 1017.0 |
| 20260906083100 | 71 | 47 | 0.0 | 2.6 | 0.00 | 0.00 | 0.00 | 86 | 1017.1 |
| 20260906082533 | 71 | 0 | 0.0 | 1.7 | 0.00 | 0.00 | 0.00 | 86 | 1017.0 |
| 20260906082035 | 71 | 0 | 0.0 | 3.5 | 0.00 | 0.00 | 0.00 | 85 | 1017.1 |
| 20260906081606 | 71 | 32 | 0.0 | 3.5 | 0.00 | 0.00 | 0.00 | 85 | 1017.2 |
| 20260906081035 | 71 | 67 | 0.0 | 3.5 | 0.00 | 0.00 | 0.00 | 85 | 1017.1 |
| 20260906080535 | 71 | 0 | 0.0 | 0.0 | 0.00 | 0.00 | 0.00 | 85 | 1017.2 |
| 20260906080142 | 71 | 0 | 0.0 | 0.0 | 0.00 | 0.00 | 0.00 | 85 | 1017.3 |
| 20260906075533 | 71 | 0 | 0.0 | 0.0 | 0.00 | 0.00 | 0.00 | 84 | 1017.4 |
| 20260906075034 | 72 | 0 | 0.0 | 0.0 | 0.00 | 0.00 | 0.00 | 84 | 1017.3 |
| 20260906074601 | 72 | 0 | 0.0 | 1.7 | 0.00 | 0.00 | 0.00 | 84 | 1017.3 |
| 20260906074033 | 72 | 0 | 0.0 | 1.7 | 0.00 | 0.00 | 0.00 | 84 | 1017.4 |
| 20260906073536 | 72 | 0 | 0.0 | 2.6 | 0.00 | 0.00 | 0.00 | 84 | 1017.4 |
| 20260906073107 | 72 | 0 | 0.0 | 2.6 | 0.00 | 0.00 | 0.00 | 84 | 1017.4 |
| 20260906072534 | 72 | 21 | 0.9 | 2.6 | 0.00 | 0.00 | 0.00 | 83 | 1017.4 |
| 20260906072034 | 72 | 42 | 0.0 | 2.6 | 0.00 | 0.00 | 0.00 | 83 | 1017.4 |
| 20260906071558 | 72 | 0 | 0.0 | 2.6 | 0.00 | 0.00 | 0.00 | 83 | 1017.3 |
| 20260906071034 | 73 | 47 | 0.0 | 2.6 | 0.00 | 0.00 | 0.00 | 83 | 1017.4 |
| 20260906070536 | 73 | 360 | 0.0 | 2.6 | 0.00 | 0.00 | 0.00 | 83 | 1017.5 |
| 20260906070127 | 73 | 53 | 0.0 | 2.6 | 0.00 | 0.00 | 0.00 | 83 | 1017.6 |
| 20260906065536 | 73 | 0 | 0.0 | 2.6 | 0.00 | 0.00 | 0.00 | 83 | 1017.5 |
| 20260906065034 | 73 | 40 | 0.0 | 2.6 | 0.00 | 0.00 | 0.00 | 83 | 1017.5 |
| 20260906064552 | 73 | 0 | 0.0 | 2.6 | 0.00 | 0.00 | 0.00 | 83 | 1017.6 |
| 20260906064034 | 73 | 99 | 0.0 | 2.6 | 0.00 | 0.00 | 0.00 | 83 | 1017.6 |
| 20260906063533 | 73 | 0 | 0.0 | 2.6 | 0.00 | 0.00 | 0.00 | 83 | 1017.6 |
| 20260906063104 | 73 | 0 | 0.0 | 4.3 | 0.00 | 0.00 | 0.00 | 83 | 1017.6 |
| 20260906062535 | 73 | 61 | 0.9 | 4.3 | 0.00 | 0.00 | 0.00 | 83 | 1017.6 |
| 20260906062034 | 73 | 40 | 0.9 | 4.3 | 0.00 | 0.00 | 0.00 | 83 | 1017.6 |
| 20260906061634 | 73 | 49 | 0.9 | 3.5 | 0.00 | 0.00 | 0.00 | 83 | 1017.6 |
| 20260906061034 | 73 | 46 | 0.9 | 3.5 | 0.00 | 0.00 | 0.00 | 83 | 1017.7 |
| 20260906060534 | 73 | 35 | 0.0 | 3.5 | 0.00 | 0.00 | 0.00 | 83 | 1017.6 |
| 20260906060059 | 73 | 0 | 0.0 | 3.5 | 0.00 | 0.00 | 0.00 | 83 | 1017.5 |
| 20260906055534 | 73 | 0 | 0.0 | 2.6 | 0.00 | 0.00 | 0.00 | 83 | 1017.4 |
| 20260906055034 | 73 | 18 | 0.0 | 7.0 | 0.00 | 0.00 | 0.00 | 83 | 1017.4 |
| 20260906054604 | 73 | 0 | 0.9 | 7.0 | 0.00 | 0.00 | 0.00 | 83 | 1017.3 |
| 20260906054035 | 73 | 45 | 1.7 | 3.5 | 0.00 | 0.00 | 0.00 | 82 | 1017.3 |
| 20260906053534 | 73 | 52 | 0.9 | 5.2 | 0.00 | 0.00 | 0.00 | 82 | 1017.4 |
| 20260906053101 | 73 | 31 | 0.9 | 5.2 | 0.00 | 0.00 | 0.00 | 82 | 1017.3 |
| 20260906052534 | 73 | 45 | 0.9 | 4.3 | 0.00 | 0.00 | 0.00 | 82 | 1017.2 |
| 20260906052034 | 73 | 93 | 0.9 | 4.3 | 0.00 | 0.00 | 0.00 | 81 | 1017.2 |
| 20260906051557 | 73 | 44 | 1.7 | 5.2 | 0.00 | 0.00 | 0.00 | 81 | 1017.2 |
| 20260906051036 | 73 | 57 | 1.7 | 7.0 | 0.00 | 0.00 | 0.00 | 81 | 1017.2 |
| 20260906050535 | 73 | 55 | 0.9 | 7.0 | 0.00 | 0.00 | 0.00 | 81 | 1017.2 |
| 20260906050112 | 73 | 68 | 0.9 | 6.1 | 0.00 | 0.00 | 0.00 | 81 | 1017.2 |
| 20260906045536 | 73 | 51 | 0.9 | 3.5 | 0.00 | 0.00 | 0.00 | 81 | 1017.2 |
| 20260906045035 | 74 | 0 | 0.9 | 5.2 | 0.00 | 0.00 | 0.00 | 81 | 1017.1 |
| 20260906044603 | 74 | 83 | 0.9 | 7.0 | 0.00 | 0.00 | 0.00 | 81 | 1016.9 |
| 20260906044033 | 74 | 339 | 2.6 | 7.0 | 0.00 | 0.00 | 0.00 | 81 | 1016.9 |
| 20260906043533 | 74 | 42 | 1.7 | 7.0 | 0.00 | 0.00 | 0.00 | 81 | 1016.7 |
| 20260906043111 | 74 | 0 | 0.9 | 3.5 | 0.00 | 0.00 | 0.00 | 81 | 1016.7 |
| 20260906042534 | 74 | 63 | 0.0 | 5.2 | 0.00 | 0.00 | 0.00 | 81 | 1016.6 |
| 20260906042034 | 74 | 68 | 0.9 | 5.2 | 0.00 | 0.00 | 0.00 | 81 | 1016.6 |
| 20260906041558 | 74 | 74 | 1.7 | 5.2 | 0.00 | 0.00 | 0.00 | 81 | 1016.6 |
| 20260906041034 | 74 | 132 | 0.9 | 5.2 | 0.00 | 0.00 | 0.00 | 81 | 1016.5 |
| 20260906040535 | 74 | 88 | 1.7 | 5.2 | 0.00 | 0.00 | 0.00 | 81 | 1016.5 |
| 20260906040114 | 74 | 52 | 1.7 | 7.0 | 0.00 | 0.00 | 0.00 | 81 | 1016.5 |
| 20260906035534 | 74 | 61 | 0.9 | 7.0 | 0.00 | 0.00 | 0.00 | 81 | 1016.3 |
| 20260906035034 | 74 | 34 | 0.9 | 8.7 | 0.00 | 0.00 | 0.00 | 80 | 1016.3 |
| 20260906034601 | 74 | 52 | 0.9 | 8.7 | 0.00 | 0.00 | 0.00 | 81 | 1016.4 |
| 20260906034033 | 74 | 88 | 2.6 | 6.1 | 0.00 | 0.00 | 0.00 | 80 | 1016.3 |
| 20260906033534 | 73 | 98 | 1.7 | 4.3 | 0.00 | 0.00 | 0.00 | 81 | 1016.2 |
| 20260906033101 | 73 | 59 | 0.9 | 6.1 | 0.00 | 0.00 | 0.00 | 81 | 1016.2 |
| 20260906032539 | 73 | 29 | 2.6 | 7.0 | 0.00 | 0.00 | 0.00 | 81 | 1016.2 |
| 20260906032032 | 73 | 48 | 1.7 | 7.8 | 0.00 | 0.00 | 0.00 | 81 | 1016.2 |
| 20260906031606 | 73 | 97 | 1.7 | 7.8 | 0.00 | 0.00 | 0.00 | 81 | 1016.2 |
| 20260906031032 | 73 | 42 | 1.7 | 6.1 | 0.00 | 0.00 | 0.00 | 81 | 1016.3 |
| 20260906030533 | 73 | 324 | 1.7 | 5.2 | 0.00 | 0.00 | 0.00 | 81 | 1016.3 |
| 20260906030110 | 73 | 63 | 1.7 | 5.2 | 0.00 | 0.00 | 0.00 | 81 | 1016.3 |
| 20260906025533 | 73 | 355 | 2.6 | 8.7 | 0.00 | 0.00 | 0.00 | 81 | 1016.2 |
| 20260906025033 | 73 | 67 | 1.7 | 8.7 | 0.00 | 0.00 | 0.00 | 81 | 1016.2 |
| 20260906024602 | 73 | 88 | 0.9 | 7.8 | 0.00 | 0.00 | 0.00 | 81 | 1016.2 |
| 20260906024033 | 73 | 85 | 2.6 | 7.8 | 0.00 | 0.00 | 0.00 | 81 | 1016.2 |
| 20260906023533 | 73 | 57 | 2.6 | 8.7 | 0.00 | 0.00 | 0.00 | 81 | 1016.2 |
| 20260906023127 | 73 | 9 | 0.9 | 8.7 | 0.00 | 0.00 | 0.00 | 81 | 1016.3 |
| 20260906022532 | 73 | 55 | 1.7 | 8.7 | 0.00 | 0.00 | 0.00 | 81 | 1016.3 |
| 20260906022032 | 73 | 128 | 3.5 | 8.7 | 0.00 | 0.00 | 0.00 | 81 | 1016.2 |
| 20260906021556 | 73 | 16 | 1.7 | 10.4 | 0.00 | 0.00 | 0.00 | 81 | 1016.3 |
| 20260906021035 | 73 | 44 | 3.5 | 10.4 | 0.00 | 0.00 | 0.00 | 81 | 1016.4 |
| 20260906020533 | 73 | 70 | 2.6 | 12.2 | 0.00 | 0.00 | 0.00 | 81 | 1016.3 |
| 20260906020108 | 73 | 49 | 2.6 | 12.2 | 0.00 | 0.00 | 0.00 | 81 | 1016.2 |
| 20260906015532 | 73 | 73 | 3.5 | 11.3 | 0.00 | 0.00 | 0.00 | 81 | 1016.2 |
| 20260906015036 | 73 | 86 | 3.5 | 11.3 | 0.00 | 0.00 | 0.00 | 81 | 1016.2 |
| 20260906014626 | 73 | 10 | 0.9 | 7.0 | 0.00 | 0.00 | 0.00 | 81 | 1016.3 |
| 20260906014034 | 73 | 56 | 1.7 | 10.4 | 0.00 | 0.00 | 0.00 | 80 | 1016.3 |
| 20260906013534 | 73 | 49 | 1.7 | 10.4 | 0.00 | 0.00 | 0.00 | 80 | 1016.2 |
| 20260906013101 | 73 | 34 | 4.3 | 10.4 | 0.00 | 0.00 | 0.00 | 80 | 1016.2 |
| 20260906012535 | 73 | 74 | 2.6 | 7.8 | 0.00 | 0.00 | 0.00 | 80 | 1016.1 |
| 20260906012032 | 73 | 31 | 1.7 | 7.8 | 0.00 | 0.00 | 0.00 | 80 | 1016.2 |
| 20260906011559 | 73 | 42 | 0.9 | 6.1 | 0.00 | 0.00 | 0.00 | 80 | 1016.1 |
| 20260906011036 | 73 | 355 | 1.7 | 6.1 | 0.00 | 0.00 | 0.00 | 80 | 1016.2 |
| 20260906010535 | 73 | 72 | 0.0 | 8.7 | 0.00 | 0.00 | 0.00 | 80 | 1016.2 |
| 20260906010101 | 73 | 91 | 3.5 | 9.6 | 0.00 | 0.00 | 0.00 | 80 | 1016.2 |
| 20260906005532 | 74 | 15 | 1.7 | 9.6 | 0.00 | 0.00 | 0.00 | 80 | 1016.2 |
| 20260906005035 | 74 | 119 | 2.6 | 9.6 | 0.00 | 0.00 | 0.00 | 80 | 1016.2 |
| 20260906004608 | 74 | 59 | 1.7 | 7.8 | 0.00 | 0.00 | 0.00 | 80 | 1016.2 |
| 20260906004034 | 74 | 77 | 2.6 | 7.8 | 0.00 | 0.00 | 0.00 | 79 | 1016.1 |
| 20260906003534 | 75 | 53 | 1.7 | 10.4 | 0.00 | 0.00 | 0.00 | 79 | 1016.0 |
| 20260906003059 | 75 | 34 | 1.7 | 10.4 | 0.00 | 0.00 | 0.00 | 79 | 1015.9 |
| 20260906002533 | 75 | 95 | 2.6 | 8.7 | 0.00 | 0.00 | 0.00 | 79 | 1015.9 |
| 20260906002035 | 75 | 0 | 1.7 | 8.7 | 0.00 | 0.00 | 0.00 | 78 | 1015.7 |
| 20260906001601 | 76 | 321 | 1.7 | 7.8 | 0.00 | 0.00 | 0.00 | 78 | 1015.7 |
| 20260906001037 | 76 | 63 | 2.6 | 10.4 | 0.00 | 0.00 | 0.00 | 77 | 1015.5 |
| 20260906000533 | 77 | 84 | 1.7 | 10.4 | 0.00 | 0.00 | 0.00 | 76 | 1015.4 |
| 20260906000109 | 77 | 5 | 3.5 | 10.4 | 0.00 | 0.00 | 0.00 | 76 | 1015.4 |
| 20260905235535 | 77 | 30 | 2.6 | 11.3 | 0.00 | 0.00 | 0.00 | 76 | 1015.2 |
| 20260905235034 | 78 | 52 | 3.5 | 11.3 | 0.00 | 0.00 | 0.00 | 75 | 1015.2 |
| 20260905234557 | 78 | 57 | 4.3 | 10.4 | 0.00 | 0.00 | 0.00 | 75 | 1015.2 |
| 20260905234035 | 79 | 40 | 1.7 | 7.0 | 0.00 | 0.00 | 0.00 | 74 | 1015.2 |
| 20260905233534 | 79 | 32 | 1.7 | 8.7 | 0.00 | 0.00 | 0.00 | 74 | 1015.2 |
| 20260905233058 | 80 | 186 | 3.5 | 8.7 | 0.00 | 0.00 | 0.00 | 74 | 1015.1 |
| 20260905232534 | 80 | 0 | 1.7 | 7.8 | 0.00 | 0.00 | 0.00 | 74 | 1015.2 |
| 20260905232033 | 80 | 82 | 1.7 | 7.0 | 0.00 | 0.00 | 0.00 | 73 | 1015.3 |
| 20260905231602 | 80 | 134 | 1.7 | 9.6 | 0.00 | 0.00 | 0.00 | 73 | 1015.1 |
| 20260905231033 | 80 | 81 | 1.7 | 9.6 | 0.00 | 0.00 | 0.00 | 73 | 1015.0 |
| 20260905230532 | 80 | 89 | 1.7 | 7.8 | 0.00 | 0.00 | 0.00 | 72 | 1015.0 |
| 20260905230101 | 81 | 78 | 1.7 | 7.0 | 0.00 | 0.00 | 0.00 | 72 | 1014.9 |
| 20260905225535 | 81 | 69 | 1.7 | 7.0 | 0.00 | 0.00 | 0.00 | 71 | 1014.9 |
| 20260905225035 | 81 | 29 | 1.7 | 7.0 | 0.00 | 0.00 | 0.00 | 71 | 1014.7 |
| 20260905224602 | 82 | 333 | 2.6 | 7.0 | 0.00 | 0.00 | 0.00 | 70 | 1014.6 |
| 20260905224035 | 82 | 59 | 1.7 | 7.0 | 0.00 | 0.00 | 0.00 | 70 | 1014.6 |
| 20260905223534 | 82 | 110 | 2.6 | 7.0 | 0.00 | 0.00 | 0.00 | 71 | 1014.8 |
| 20260905223125 | 82 | 86 | 2.6 | 7.0 | 0.00 | 0.00 | 0.00 | 71 | 1014.6 |
| 20260905222535 | 82 | 62 | 1.7 | 4.3 | 0.00 | 0.00 | 0.00 | 71 | 1014.6 |
| 20260905222035 | 82 | 41 | 0.9 | 7.8 | 0.00 | 0.00 | 0.00 | 70 | 1014.5 |
| 20260905221606 | 82 | 50 | 1.7 | 7.8 | 0.00 | 0.00 | 0.00 | 71 | 1014.6 |
| 20260905221035 | 82 | 53 | 1.7 | 7.0 | 0.00 | 0.00 | 0.00 | 71 | 1014.5 |
| 20260905220535 | 82 | 264 | 1.7 | 7.0 | 0.00 | 0.00 | 0.00 | 71 | 1014.4 |
| 20260905220111 | 82 | 115 | 1.7 | 7.0 | 0.00 | 0.00 | 0.00 | 71 | 1014.5 |
| 20260905215535 | 82 | 88 | 1.7 | 7.0 | 0.00 | 0.00 | 0.00 | 71 | 1014.6 |
| 20260905215036 | 82 | 46 | 0.9 | 7.8 | 0.00 | 0.00 | 0.00 | 72 | 1014.6 |
| 20260905214606 | 83 | 13 | 1.7 | 9.6 | 0.00 | 0.00 | 0.00 | 72 | 1014.7 |
| 20260905214035 | 83 | 117 | 2.6 | 9.6 | 0.00 | 0.00 | 0.00 | 71 | 1014.6 |
| 20260905213536 | 83 | 78 | 1.7 | 7.8 | 0.00 | 0.00 | 0.00 | 71 | 1014.5 |
| 20260905213057 | 83 | 32 | 1.7 | 7.8 | 0.00 | 0.00 | 0.00 | 71 | 1014.5 |
| 20260905212536 | 83 | 130 | 2.6 | 7.8 | 0.00 | 0.00 | 0.00 | 70 | 1014.6 |
| 20260905212035 | 84 | 15 | 2.6 | 7.0 | 0.00 | 0.00 | 0.00 | 70 | 1014.6 |
| 20260905211558 | 84 | 360 | 1.7 | 7.8 | 0.00 | 0.00 | 0.00 | 70 | 1014.5 |
| 20260905211035 | 84 | 269 | 2.6 | 7.8 | 0.00 | 0.00 | 0.00 | 69 | 1014.6 |
| 20260905210534 | 84 | 40 | 1.7 | 7.8 | 0.00 | 0.00 | 0.00 | 70 | 1014.7 |
| 20260905205535 | 84 | 51 | 1.7 | 8.7 | 0.00 | 0.00 | 0.00 | 70 | 1014.7 |
| 20260905205036 | 85 | 40 | 1.7 | 7.8 | 0.00 | 0.00 | 0.00 | 69 | 1014.7 |
| 20260905204600 | 85 | 98 | 2.6 | 7.8 | 0.00 | 0.00 | 0.00 | 71 | 1014.7 |
| 20260905204036 | 86 | 298 | 2.6 | 7.8 | 0.00 | 0.00 | 0.00 | 68 | 1014.8 |
| 20260905203535 | 86 | 74 | 1.7 | 7.0 | 0.00 | 0.00 | 0.00 | 69 | 1014.8 |
| 20260905203103 | 85 | 46 | 0.9 | 7.0 | 0.00 | 0.00 | 0.00 | 71 | 1014.8 |
| 20260905202533 | 85 | 14 | 3.5 | 7.0 | 0.00 | 0.00 | 0.00 | 70 | 1014.8 |
| 20260905202035 | 85 | 9 | 2.6 | 7.0 | 0.00 | 0.00 | 0.00 | 71 | 1014.8 |
| 20260905201601 | 84 | 53 | 2.6 | 7.0 | 0.00 | 0.00 | 0.00 | 71 | 1014.7 |
| 20260905201035 | 85 | 34 | 1.7 | 7.0 | 0.00 | 0.00 | 0.00 | 71 | 1014.8 |
| 20260905200535 | 85 | 355 | 1.7 | 8.7 | 0.00 | 0.00 | 0.00 | 71 | 1014.7 |
| 20260905200100 | 85 | 53 | 2.6 | 9.6 | 0.00 | 0.00 | 0.00 | 69 | 1014.8 |
| 20260905195536 | 86 | 17 | 2.6 | 9.6 | 0.00 | 0.00 | 0.00 | 68 | 1014.7 |
| 20260905195035 | 86 | 51 | 1.7 | 8.7 | 0.00 | 0.00 | 0.00 | 68 | 1014.7 |
| 20260905194557 | 87 | 83 | 1.7 | 6.1 | 0.00 | 0.00 | 0.00 | 67 | 1014.7 |
| 20260905194035 | 87 | 360 | 1.7 | 7.0 | 0.00 | 0.00 | 0.00 | 68 | 1014.6 |
| 20260905193532 | 86 | 51 | 2.6 | 7.8 | 0.00 | 0.00 | 0.00 | 67 | 1014.7 |
| 20260905193059 | 87 | 18 | 2.6 | 7.8 | 0.00 | 0.00 | 0.00 | 67 | 1014.6 |
| 20260905192532 | 87 | 0 | 2.6 | 7.8 | 0.00 | 0.00 | 0.00 | 67 | 1014.7 |
| 20260905192036 | 87 | 338 | 3.5 | 7.0 | 0.00 | 0.00 | 0.00 | 66 | 1014.7 |
| 20260905191600 | 88 | 147 | 1.7 | 7.8 | 0.00 | 0.00 | 0.00 | 68 | 1014.8 |
| 20260905191035 | 87 | 352 | 1.7 | 7.8 | 0.00 | 0.00 | 0.00 | 68 | 1014.8 |
| 20260905190535 | 87 | 53 | 2.6 | 7.8 | 0.00 | 0.00 | 0.00 | 66 | 1014.8 |
| 20260905185536 | 89 | 321 | 1.7 | 7.8 | 0.00 | 0.00 | 0.00 | 66 | 1014.7 |
| 20260905185037 | 89 | 13 | 2.6 | 8.7 | 0.00 | 0.00 | 0.00 | 67 | 1014.8 |
| 20260905184608 | 89 | 30 | 1.7 | 8.7 | 0.00 | 0.00 | 0.00 | 66 | 1014.8 |
| 20260905184035 | 89 | 171 | 1.7 | 6.1 | 0.00 | 0.00 | 0.00 | 69 | 1014.8 |
| 20260905183535 | 88 | 0 | 0.9 | 8.7 | 0.00 | 0.00 | 0.00 | 68 | 1014.9 |
| 20260905183124 | 89 | 232 | 0.9 | 8.7 | 0.00 | 0.00 | 0.00 | 66 | 1014.8 |
| 20260905182535 | 90 | 20 | 0.9 | 7.0 | 0.00 | 0.00 | 0.00 | 65 | 1014.9 |
| 20260905182035 | 89 | 338 | 1.7 | 6.1 | 0.00 | 0.00 | 0.00 | 67 | 1014.8 |
| 20260905181604 | 89 | 263 | 0.9 | 7.0 | 0.00 | 0.00 | 0.00 | 68 | 1014.8 |
| 20260905181036 | 88 | 49 | 1.7 | 7.0 | 0.00 | 0.00 | 0.00 | 69 | 1014.7 |
| 20260905180536 | 87 | 59 | 1.7 | 7.0 | 0.00 | 0.00 | 0.00 | 71 | 1014.9 |
| 20260905180058 | 87 | 0 | 2.6 | 7.0 | 0.00 | 0.00 | 0.00 | 68 | 1014.7 |
| 20260905175536 | 88 | 54 | 2.6 | 7.0 | 0.00 | 0.00 | 0.00 | 68 | 1014.7 |
| 20260905175034 | 87 | 124 | 0.9 | 5.2 | 0.00 | 0.00 | 0.00 | 70 | 1014.7 |
| 20260905174605 | 87 | 0 | 0.9 | 5.2 | 0.00 | 0.00 | 0.00 | 68 | 1014.6 |
| 20260905174036 | 88 | 246 | 2.6 | 5.2 | 0.00 | 0.00 | 0.00 | 67 | 1014.6 |
| 20260905173536 | 88 | 309 | 0.9 | 4.3 | 0.00 | 0.00 | 0.00 | 67 | 1014.6 |
| 20260905173100 | 88 | 334 | 0.9 | 6.1 | 0.00 | 0.00 | 0.00 | 68 | 1014.7 |
| 20260905172535 | 89 | 209 | 0.9 | 6.1 | 0.00 | 0.00 | 0.00 | 69 | 1014.7 |
| 20260905172036 | 89 | 105 | 1.7 | 5.2 | 0.00 | 0.00 | 0.00 | 68 | 1014.7 |
| 20260905171604 | 88 | 67 | 1.7 | 8.7 | 0.00 | 0.00 | 0.00 | 68 | 1014.7 |
| 20260905171036 | 88 | 76 | 1.7 | 8.7 | 0.00 | 0.00 | 0.00 | 69 | 1014.8 |
| 20260905170535 | 88 | 67 | 2.6 | 7.0 | 0.00 | 0.00 | 0.00 | 68 | 1014.9 |
| 20260905170057 | 88 | 72 | 1.7 | 7.0 | 0.00 | 0.00 | 0.00 | 69 | 1014.9 |
| 20260905165535 | 88 | 89 | 1.7 | 7.8 | 0.00 | 0.00 | 0.00 | 69 | 1015.0 |
| 20260905165039 | 88 | 40 | 1.7 | 7.8 | 0.00 | 0.00 | 0.00 | 70 | 1015.0 |
| 20260905164606 | 88 | 49 | 1.7 | 6.1 | 0.00 | 0.00 | 0.00 | 69 | 1015.0 |
| 20260905164034 | 88 | 316 | 0.9 | 6.1 | 0.00 | 0.00 | 0.00 | 69 | 1015.1 |
| 20260905163535 | 88 | 278 | 1.7 | 6.1 | 0.00 | 0.00 | 0.00 | 68 | 1015.1 |
| 20260905163101 | 88 | 255 | 1.7 | 6.1 | 0.00 | 0.00 | 0.00 | 70 | 1015.1 |
| 20260905162536 | 87 | 78 | 0.9 | 7.0 | 0.00 | 0.00 | 0.00 | 71 | 1015.1 |
| 20260905162035 | 87 | 71 | 2.6 | 7.0 | 0.00 | 0.00 | 0.00 | 71 | 1015.1 |
| 20260905161559 | 87 | 276 | 1.7 | 8.7 | 0.00 | 0.00 | 0.00 | 71 | 1015.1 |
| 20260905161035 | 87 | 174 | 0.9 | 8.7 | 0.00 | 0.00 | 0.00 | 73 | 1015.2 |
| 20260905160537 | 86 | 35 | 1.7 | 8.7 | 0.00 | 0.00 | 0.00 | 72 | 1015.2 |
| 20260905160111 | 86 | 104 | 1.7 | 7.8 | 0.00 | 0.00 | 0.00 | 72 | 1015.1 |
| 20260905155535 | 85 | 69 | 2.6 | 7.8 | 0.00 | 0.00 | 0.00 | 72 | 1015.1 |
| 20260905155034 | 86 | 74 | 1.7 | 6.1 | 0.00 | 0.00 | 0.00 | 73 | 1015.1 |
| 20260905154603 | 85 | 78 | 2.6 | 6.1 | 0.00 | 0.00 | 0.00 | 73 | 1015.1 |
| 20260905154035 | 85 | 340 | 1.7 | 9.6 | 0.00 | 0.00 | 0.00 | 73 | 1015.0 |
| 20260905153534 | 84 | 119 | 1.7 | 9.6 | 0.00 | 0.00 | 0.00 | 74 | 1015.0 |
| 20260905153106 | 84 | 45 | 1.7 | 7.0 | 0.00 | 0.00 | 0.00 | 74 | 1015.0 |
| 20260905152535 | 84 | 48 | 1.7 | 6.1 | 0.00 | 0.00 | 0.00 | 76 | 1015.0 |
| 20260905152035 | 83 | 126 | 1.7 | 10.4 | 0.00 | 0.00 | 0.00 | 75 | 1014.8 |
| 20260905151553 | 83 | 55 | 2.6 | 10.4 | 0.00 | 0.00 | 0.00 | 76 | 1014.8 |
| 20260905151034 | 83 | 24 | 1.7 | 9.6 | 0.00 | 0.00 | 0.00 | 76 | 1014.8 |
| 20260905150535 | 82 | 123 | 2.6 | 9.6 | 0.00 | 0.00 | 0.00 | 77 | 1014.7 |
| 20260905150059 | 82 | 84 | 2.6 | 10.4 | 0.00 | 0.00 | 0.00 | 77 | 1014.7 |
| 20260905145535 | 81 | 332 | 3.5 | 10.4 | 0.00 | 0.00 | 0.00 | 77 | 1014.7 |
| 20260905145035 | 81 | 5 | 2.6 | 9.6 | 0.00 | 0.00 | 0.00 | 77 | 1014.7 |
| 20260905144557 | 81 | 143 | 2.6 | 8.7 | 0.00 | 0.00 | 0.00 | 77 | 1014.6 |
| 20260905144036 | 81 | 55 | 2.6 | 8.7 | 0.00 | 0.00 | 0.00 | 78 | 1014.7 |
| 20260905143535 | 82 | 24 | 3.5 | 8.7 | 0.00 | 0.00 | 0.00 | 77 | 1014.6 |
| 20260905143059 | 82 | 91 | 2.6 | 8.7 | 0.00 | 0.00 | 0.00 | 78 | 1014.7 |
| 20260905142535 | 82 | 29 | 1.7 | 8.7 | 0.00 | 0.00 | 0.00 | 77 | 1014.6 |
| 20260905142035 | 82 | 46 | 0.0 | 7.8 | 0.00 | 0.00 | 0.00 | 79 | 1014.6 |
| 20260905141600 | 82 | 28 | 2.6 | 7.8 | 0.00 | 0.00 | 0.00 | 78 | 1014.5 |
| 20260905141035 | 82 | 19 | 2.6 | 7.0 | 0.00 | 0.00 | 0.00 | 78 | 1014.3 |
| 20260905140536 | 82 | 36 | 0.0 | 7.0 | 0.00 | 0.00 | 0.00 | 79 | 1014.3 |
| 20260905140108 | 82 | 55 | 1.7 | 7.0 | 0.00 | 0.00 | 0.00 | 78 | 1014.2 |
| 20260905135534 | 82 | 80 | 1.7 | 6.1 | 0.00 | 0.00 | 0.00 | 79 | 1014.2 |
| 20260905135033 | 82 | 0 | 1.7 | 5.2 | 0.00 | 0.00 | 0.00 | 80 | 1014.2 |
| 20260905134556 | 81 | 71 | 0.9 | 4.3 | 0.00 | 0.00 | 0.00 | 80 | 1014.2 |
| 20260905134035 | 81 | 42 | 0.9 | 6.1 | 0.00 | 0.00 | 0.00 | 81 | 1014.2 |
| 20260905133536 | 81 | 53 | 0.9 | 6.1 | 0.00 | 0.00 | 0.00 | 82 | 1014.1 |
| 20260905133053 | 80 | 88 | 0.9 | 6.1 | 0.00 | 0.00 | 0.00 | 82 | 1014.2 |
| 20260905132535 | 80 | 0 | 1.7 | 5.2 | 0.00 | 0.00 | 0.00 | 84 | 1014.4 |
| 20260905132035 | 80 | 0 | 0.0 | 3.5 | 0.00 | 0.00 | 0.00 | 85 | 1014.5 |
| 20260905131609 | 79 | 314 | 0.0 | 4.3 | 0.00 | 0.00 | 0.00 | 86 | 1014.5 |
| 20260905131033 | 79 | 0 | 0.9 | 4.3 | 0.00 | 0.00 | 0.00 | 87 | 1014.2 |
| 20260905130532 | 78 | 92 | 1.7 | 5.2 | 0.00 | 0.00 | 0.00 | 88 | 1013.9 |
| 20260905130055 | 78 | 42 | 1.7 | 5.2 | 0.00 | 0.00 | 0.00 | 89 | 1014.0 |
| 20260905125531 | 78 | 34 | 0.0 | 2.6 | 0.00 | 0.00 | 0.00 | 90 | 1013.9 |
| 20260905125034 | 78 | 0 | 0.0 | 3.5 | 0.00 | 0.00 | 0.00 | 90 | 1013.8 |
| 20260905124558 | 77 | 55 | 0.0 | 3.5 | 0.00 | 0.00 | 0.00 | 90 | 1013.7 |
| 20260905124032 | 77 | 0 | 0.0 | 2.6 | 0.00 | 0.00 | 0.00 | 91 | 1013.7 |
| 20260905123532 | 77 | 0 | 0.0 | 1.7 | 0.00 | 0.00 | 0.00 | 91 | 1013.5 |
| 20260905123057 | 77 | 0 | 0.0 | 1.7 | 0.00 | 0.00 | 0.00 | 91 | 1013.5 |
| 20260905122531 | 76 | 0 | 0.0 | 0.9 | 0.00 | 0.00 | 0.00 | 91 | 1013.4 |
| 20260905122032 | 76 | 0 | 0.0 | 0.9 | 0.00 | 0.00 | 0.00 | 91 | 1013.3 |